Total_Precipitation_Accumulation
0.76 0.77 0.72 0.76 0.68 0.66 0.73 0.79 0.78 0.78 0.68 0.53 0.47 0.46 0.51 0.44 0.41 0.44 0.53 0.61 0.79 0.88 0.87 0.71 0.53 0.46 0.46 0.44 0.46 0.53 0.60 0.61 0.65 0.66 0.56 0.44 0.35 0.28 0.19 0.17 0.18 0.21 0.21
0.81 0.86 0.82 0.81 0.78 0.72 0.74 0.89 0.82 0.85 0.81 0.73 0.55 0.51 0.51 0.46 0.42 0.42 0.49 0.69 0.80 0.80 0.92 0.96 0.78 0.64 0.54 0.49 0.49 0.54 0.56 0.57 0.56 0.60 0.55 0.43 0.32 0.26 0.17 0.15 0.16 0.18 0.19
0.77 0.82 0.84 0.81 0.80 0.81 0.81 0.86 0.87 0.91 0.79 0.72 0.62 0.56 0.51 0.45 0.41 0.41 0.40 0.45 0.45 0.53 0.69 0.84 0.89 0.77 0.67 0.58 0.57 0.51 0.47 0.46 0.49 0.54 0.58 0.47 0.35 0.27 0.21 0.20 0.19 0.17 0.15
0.84 0.84 0.90 0.91 0.94 0.97 0.94 0.94 0.97 0.97 0.89 0.83 0.78 0.69 0.54 0.52 0.46 0.46 0.41 0.39 0.37 0.33 0.47 0.55 0.65 0.70 0.75 0.74 0.76 0.61 0.48 0.37 0.36 0.45 0.54 0.51 0.40 0.32 0.28 0.28 0.25 0.20 0.15
0.91 1.03 1.06 1.11 1.08 1.09 1.10 1.06 1.07 0.98 0.95 0.91 0.81 0.73 0.62 0.59 0.54 0.45 0.49 0.46 0.43 0.36 0.38 0.36 0.40 0.42 0.49 0.60 0.68 0.71 0.56 0.38 0.30 0.33 0.38 0.41 0.37 0.33 0.34 0.32 0.26 0.22 0.19
1.22 1.36 1.45 1.38 1.37 1.35 1.32 1.27 1.33 1.22 1.03 0.99 0.92 0.78 0.62 0.57 0.58 0.51 0.52 0.51 0.47 0.44 0.41 0.34 0.28 0.25 0.28 0.36 0.45 0.56 0.56 0.45 0.34 0.30 0.32 0.33 0.31 0.28 0.31 0.35 0.32 0.29 0.26
1.61 1.72 1.64 1.71 1.73 1.58 1.57 1.61 1.65 1.59 1.32 1.17 1.19 1.03 0.77 0.54 0.55 0.54 0.52 0.51 0.53 0.56 0.59 0.52 0.37 0.30 0.23 0.24 0.25 0.37 0.50 0.55 0.50 0.39 0.34 0.34 0.32 0.26 0.24 0.28 0.30 0.32 0.34
1.84 1.87 1.94 2.00 2.01 1.98 1.93 1.80 1.86 1.93 1.68 1.45 1.50 1.70 1.30 0.90 0.59 0.47 0.50 0.50 0.53 0.62 0.66 0.63 0.50 0.41 0.30 0.30 0.19 0.23 0.34 0.52 0.61 0.54 0.44 0.40 0.35 0.26 0.23 0.23 0.26 0.28 0.33
2.07 2.10 2.15 2.20 2.17 2.01 1.98 2.06 2.14 2.43 2.22 1.86 1.68 1.87 1.60 1.28 0.99 0.63 0.54 0.57 0.60 0.63 0.72 0.81 0.72 0.64 0.55 0.43 0.38 0.26 0.19 0.26 0.46 0.57 0.57 0.50 0.44 0.32 0.25 0.23 0.24 0.27 0.29
2.00 2.12 2.13 2.11 2.07 1.99 2.04 2.08 2.10 2.43 2.58 2.26 1.97 1.65 1.38 1.30 1.30 1.01 0.73 0.66 0.70 0.63 0.66 0.73 0.73 0.78 0.77 0.68 0.61 0.40 0.25 0.20 0.32 0.52 0.66 0.68 0.59 0.48 0.36 0.31 0.30 0.28 0.29
1.87 1.90 1.92 2.00 2.02 2.05 2.08 2.21 2.29 2.50 2.50 2.46 2.26 2.11 1.88 1.55 1.19 1.17 1.11 0.88 0.82 0.70 0.70 0.77 0.82 0.91 0.89 0.86 0.87 0.66 0.42 0.25 0.27 0.46 0.66 0.76 0.73 0.64 0.56 0.44 0.38 0.34 0.32
1.84 1.78 1.75 1.82 1.93 2.08 2.13 2.17 2.27 2.48 2.59 2.64 2.52 2.29 2.15 1.96 1.66 1.49 1.23 1.10 1.06 0.90 0.83 0.80 0.81 0.88 0.98 0.99 0.95 1.05 0.80 0.44 0.27 0.34 0.51 0.72 0.86 0.85 0.77 0.69 0.60 0.50 0.45
1.54 1.56 1.64 1.73 1.86 1.98 2.05 2.14 2.26 2.28 2.38 2.61 2.61 2.43 2.20 1.99 1.92 1.77 1.60 1.30 1.14 0.94 0.87 0.83 0.78 0.77 0.82 0.94 1.04 1.15 0.94 0.65 0.41 0.31 0.28 0.34 0.52 0.74 0.87 0.83 0.79 0.74 0.66
1.43 1.36 1.41 1.50 1.72 1.92 2.00 2.07 2.08 2.05 2.09 2.25 2.26 2.32 2.27 2.00 1.92 1.77 1.69 1.72 1.46 1.22 1.00 0.81 0.73 0.73 0.74 0.83 0.99 1.09 0.81 0.71 0.53 0.39 0.32 0.28 0.29 0.37 0.53 0.74 0.87 0.89 0.89
1.23 1.18 1.20 1.22 1.33 1.56 1.82 1.97 1.90 1.82 1.79 1.90 1.96 2.07 2.17 2.18 2.10 1.96 1.91 1.88 1.76 1.49 1.28 1.05 0.86 0.74 0.74 0.80 0.99 0.85 0.72 0.71 0.62 0.49 0.39 0.33 0.29 0.30 0.34 0.41 0.53 0.64 0.78
1.04 1.04 1.01 1.06 1.18 1.29 1.49 1.71 1.80 1.75 1.71 1.74 1.83 1.97 2.09 2.18 2.24 2.04 1.98 1.92 1.75 1.58 1.39 1.11 0.91 0.79 0.84 0.83 0.98 0.83 0.77 0.85 0.70 0.58 0.48 0.40 0.33 0.31 0.32 0.33 0.33 0.33 0.36
0.79 0.82 0.96 1.03 1.10 1.18 1.34 1.59 1.76 1.77 1.69 1.67 1.65 1.71 1.85 1.96 2.18 2.16 2.06 1.94 1.78 1.58 1.40 1.24 1.02 0.82 0.86 0.90 0.96 0.91 0.83 0.77 0.65 0.62 0.53 0.44 0.39 0.36 0.34 0.37 0.37 0.34 0.32
0.54 0.66 0.78 0.83 0.88 0.93 1.09 1.38 1.58 1.61 1.56 1.46 1.43 1.51 1.72 1.91 2.12 2.22 2.17 2.03 1.90 1.75 1.61 1.50 1.31 1.05 0.92 0.92 1.02 1.08 1.01 0.95 0.88 0.87 0.74 0.58 0.49 0.45 0.41 0.40 0.41 0.39 0.36
0.57 0.66 0.75 0.80 0.84 0.89 0.92 1.02 1.18 1.29 1.27 1.22 1.23 1.26 1.29 1.47 1.73 1.93 1.98 1.99 2.01 1.97 1.89 1.71 1.47 1.30 1.15 1.01 1.02 1.06 1.03 1.08 1.02 1.05 1.01 0.84 0.72 0.66 0.59 0.52 0.46 0.43 0.39
0.51 0.57 0.61 0.69 0.79 0.84 0.83 0.83 0.87 0.94 0.95 0.99 1.03 1.09 1.11 1.12 1.28 1.45 1.59 1.79 2.00 1.99 1.97 1.88 1.64 1.40 1.24 1.12 1.13 1.14 1.14 1.13 1.11 1.01 1.00 0.92 0.85 0.77 0.68 0.59 0.51 0.46 0.44
0.42 0.48 0.53 0.56 0.63 0.70 0.76 0.76 0.67 0.66 0.73 0.80 0.84 0.84 0.85 0.92 1.04 1.11 1.18 1.50 1.81 1.93 1.90 1.85 1.73 1.53 1.28 1.18 1.08 1.05 1.15 1.32 1.32 1.25 1.20 1.03 0.93 0.81 0.73 0.68 0.62 0.55 0.51
0.39 0.44 0.44 0.47 0.56 0.58 0.68 0.66 0.52 0.52 0.56 0.66 0.75 0.74 0.67 0.67 0.73 0.77 0.85 1.01 1.25 1.46 1.66 1.80 1.76 1.56 1.36 1.22 1.16 1.18 1.20 1.26 1.32 1.23 1.27 1.30 1.21 1.11 1.01 0.90 0.88 0.85 0.75
0.35 0.38 0.39 0.40 0.46 0.57 0.58 0.42 0.40 0.44 0.52 0.58 0.66 0.73 0.66 0.56 0.61 0.65 0.75 0.83 0.83 0.89 1.13 1.41 1.55 1.53 1.57 1.39 1.31 1.24 1.19 1.23 1.26 1.23 1.29 1.31 1.32 1.26 1.20 1.14 1.18 1.09 0.98
0.42 0.42 0.44 0.44 0.44 0.49 0.46 0.33 0.34 0.38 0.46 0.53 0.63 0.72 0.77 0.68 0.67 0.76 0.77 0.79 0.74 0.70 0.86 0.88 1.05 1.33 1.46 1.49 1.42 1.45 1.57 1.51 1.37 1.25 1.16 1.16 1.14 1.15 1.16 1.15 1.19 1.09 0.99
0.42 0.44 0.48 0.48 0.43 0.40 0.39 0.30 0.29 0.38 0.46 0.53 0.56 0.62 0.69 0.66 0.78 0.85 0.84 0.95 0.92 0.82 0.92 0.96 0.99 1.02 1.10 1.18 1.28 1.34 1.41 1.47 1.44 1.32 1.10 0.99 0.96 0.98 1.01 0.99 0.98 0.99 0.95
0.24 0.32 0.34 0.38 0.41 0.38 0.46 0.33 0.32 0.38 0.49 0.60 0.64 0.63 0.76 0.75 0.78 0.76 0.74 0.95 0.97 0.87 0.78 0.83 0.83 0.80 0.73 0.79 0.95 1.09 1.27 1.33 1.28 1.18 0.98 0.85 0.84 0.87 0.86 0.73 0.64 0.65 0.67